N5ZKK Weather Reports


Display with metric or nautical units.
time (UTC)temp
F
wind
direction
speed
MPH
gust
MPH
rain 1hr
in
rain 24hr
in
rain mn
in
humidity
%
barometer
mb
20260502163901 69 45 5.0 11.0 0.00 0.18 0.00 56 1024.3
20260502163549 69 45 6.0 12.0 0.00 0.18 0.00 57 1025.8
20260502162526 68 19 6.0 9.0 0.00 0.19 0.00 57 1025.8
20260502161522 67 31 6.0 11.0 0.00 0.19 0.00 59 1025.8
20260502160901 67 15 6.0 12.0 0.00 0.18 0.00 59 1024.6
20260502160519 67 15 7.0 12.0 0.00 0.19 0.00 59 1025.8
20260502151549 67 21 5.0 7.0 0.00 0.19 0.00 57 1025.9
20260502150901 65 21 5.0 7.0 0.00 0.18 0.00 58 1024.7
20260502150532 66 21 5.0 7.0 0.00 0.19 0.00 59 1025.8
20260502130523 49 307 0.0 2.0 0.00 0.29 0.00 99 1024.2
20260502123529 45 305 1.0 3.0 0.00 0.38 0.00 99 1024.1
20260502122531 45 274 3.0 4.0 0.00 0.40 0.00 99 1024.0
20260502121516 44 267 1.0 3.0 0.00 0.41 0.00 99 1023.9
20260502120901 43 0 0.0 0.0 0.00 0.42 0.00 99 1025.3
20260502120518 43 0.0 0.0 0.00 0.42 0.00 99 1023.7
20260502115521 43 0.0 0.0 0.00 0.44 0.00 99 1023.5
20260502114522 43 0.0 0.0 0.00 0.48 0.00 99 1023.3
20260502113901 43 0 0.0 0.0 0.00 0.48 0.00 99 1024.8
20260502113544 43 0.0 0.0 0.00 0.48 0.00 99 1023.3
20260502112526 43 0.0 0.0 0.00 0.48 0.00 99 1023.3
20260502111528 43 0.0 0.0 0.00 0.48 0.00 99 1023.3
20260502110901 43 0 0.0 0.0 0.00 0.48 0.00 99 1024.7
20260502110525 43 0.0 0.0 0.00 0.48 0.00 99 1023.2
20260502105515 43 0.0 0.0 0.00 0.48 0.00 99 1023.2
20260502104517 43 0.0 0.0 0.00 0.48 0.00 99 1023.2
20260502103901 43 0 0.0 0.0 0.00 0.48 0.00 99 1024.4
20260502103519 44 0.0 0.0 0.00 0.48 0.00 99 1022.9
20260502102541 44 0.0 0.0 0.00 0.48 0.00 99 1022.9
20260502101524 44 0.0 0.0 0.00 0.48 0.00 99 1022.9
20260502100901 44 0 0.0 0.0 0.00 0.49 0.00 99 1024.1
20260502100526 45 0.0 0.0 0.00 0.50 0.00 99 1022.7
20260502091519 46 270 4.0 5.0 0.00 0.60 0.00 99 1022.1
20260502090901 46 272 3.0 4.0 0.00 0.60 0.00 99 1023.0
20260502090521 46 272 4.0 5.0 0.00 0.60 0.00 99 1021.9
20260502071520 46 0.0 0.0 0.00 0.61 0.00 99 1021.4
20260502070901 46 0 0.0 0.0 0.00 0.60 0.00 99 1022.5
20260502070523 46 0.0 0.0 0.00 0.61 0.00 99 1021.4
20260502065525 46 0.0 0.0 0.00 0.61 0.00 99 1021.4
20260502064528 46 0.0 0.0 0.00 0.61 0.00 99 1021.5
20260502063901 46 0 0.0 0.0 0.00 0.60 0.00 99 1022.6
20260502063530 46 0.0 0.0 0.00 0.61 0.00 99 1021.5
20260502062531 47 0.0 0.0 0.00 0.61 0.00 99 1021.4
20260502061515 47 0.0 0.0 0.00 0.61 0.00 99 1021.4
20260502060901 46 270 0.0 2.0 0.00 0.60 0.00 99 1022.4
20260502060516 47 270 0.0 3.0 0.00 0.61 0.00 99 1021.4
20260502054522 47 0.0 0.0 0.00 0.61 0.00 99 1021.6
20260502053901 47 0 0.0 0.0 0.00 0.60 0.00 99 1022.3
20260502053516 48 0.0 0.0 0.00 0.61 0.00 99 1021.4
20260502052524 48 255 1.0 3.0 0.00 0.61 0.00 99 1021.2
20260502051547 48 0.0 0.0 0.00 0.62 0.00 99 1021.2
20260502050901 47 0 0.0 0.0 0.00 0.61 0.00 99 1022.3
20260502050529 48 0.0 0.0 0.00 0.62 0.00 99 1021.3
20260502045531 48 0.0 0.0 0.00 0.62 0.62 99 1021.0
20260502044515 48 0.0 0.0 0.00 0.62 0.62 99 1021.2
20260502043901 48 0 0.0 0.0 0.00 0.63 0.61 99 1022.0
20260502043518 49 0.0 0.0 0.00 0.63 0.62 99 1021.2
20260502042520 49 0.0 0.0 0.00 0.63 0.62 99 1021.2
20260502041542 49 0.0 0.0 0.00 0.63 0.62 99 1021.4
20260502040901 49 225 0.0 1.0 0.00 0.63 0.61 99 1022.0
20260502040524 50 225 0.0 2.0 0.00 0.63 0.62 99 1021.3
20260502035527 50 0.0 0.0 0.00 0.63 0.62 98 1021.1
20260502034529 50 0.0 0.0 0.00 0.63 0.62 97 1021.0
20260502033901 50 0 0.0 0.0 0.00 0.63 0.61 96 1021.5
20260502033531 51 0.0 0.0 0.00 0.63 0.62 96 1020.9
20260502032516 51 354 2.0 4.0 0.00 0.63 0.62 94 1020.8
20260502031517 51 14 2.0 3.0 0.00 0.63 0.62 93 1020.6
20260502030901 51 358 1.0 3.0 0.00 0.63 0.61 93 1021.0
20260502030540 52 358 2.0 3.0 0.00 0.63 0.62 93 1020.6
20260502025516 52 28 2.0 4.0 0.00 0.63 0.62 94 1020.4
20260502024544 52 9 1.0 4.0 0.00 0.63 0.62 95 1020.1
20260502023901 51 358 1.0 4.0 0.00 0.63 0.61 94 1020.7
20260502023527 52 359 1.0 5.0 0.00 0.63 0.62 95 1020.2
20260502022529 52 347 2.0 4.0 0.00 0.63 0.62 93 1020.1
20260502021531 52 86 1.0 3.0 0.00 0.64 0.62 92 1019.9
20260502020901 52 17 4.0 6.0 0.00 0.66 0.61 92 1020.1
20260502020516 53 17 4.0 7.0 0.00 0.67 0.62 92 1019.7
20260502015518 53 2 2.0 4.0 0.00 0.70 0.62 91 1019.4
20260502014520 53 28 3.0 6.0 0.00 0.73 0.62 91 1019.0
20260502013901 53 31 4.0 8.0 0.00 0.75 0.61 91 1019.2
20260502013522 53 31 4.0 8.0 0.00 0.75 0.62 91 1018.8
20260502012524 53 34 5.0 7.0 0.00 0.79 0.62 91 1018.7
20260502011527 53 28 3.0 7.0 0.00 0.80 0.62 91 1018.7
20260502010901 53 356 5.0 11.0 0.00 0.79 0.61 91 1018.8
20260502010529 53 357 5.0 12.0 0.00 0.80 0.62 91 1018.5
20260502005532 54 35 4.0 8.0 0.00 0.80 0.62 91 1018.3
20260502004516 54 31 7.0 11.0 0.00 0.80 0.62 92 1018.2
20260502003901 53 34 8.0 15.0 0.00 0.79 0.61 93 1018.3
20260502003518 54 35 8.0 15.0 0.00 0.80 0.62 93 1018.2
20260502002520 54 13 6.0 9.0 0.00 0.80 0.62 93 1017.9
20260502001516 55 14 6.0 9.0 0.00 0.80 0.62 93 1017.6
20260502000901 55 19 6.0 12.0 0.00 0.79 0.61 92 1017.5
20260502000525 55 19 6.0 12.0 0.00 0.80 0.62 92 1017.5
20260501235528 56 5 7.0 12.0 0.00 0.80 0.62 92 1017.0
20260501234530 56 44 7.0 9.0 0.00 0.80 0.62 91 1016.9
20260501233901 55 15 6.0 11.0 0.00 0.79 0.61 91 1016.5
20260501233532 56 15 7.0 11.0 0.00 0.80 0.62 91 1016.6
20260501232516 56 355 6.0 9.0 0.00 0.80 0.62 91 1016.5
20260501231539 57 29 7.0 12.0 0.00 0.80 0.62 90 1016.1
20260501230901 56 20 8.0 12.0 0.00 0.79 0.61 92 1016.2
20260501230520 56 21 9.0 13.0 0.00 0.80 0.62 92 1016.2
20260501225543 57 28 8.0 11.0 0.00 0.80 0.62 91 1016.0
20260501224525 57 47 7.0 12.0 0.00 0.80 0.62 92 1016.1
20260501223901 57 22 9.0 13.0 0.00 0.79 0.61 91 1015.6
20260501223528 58 22 9.0 13.0 0.00 0.80 0.62 91 1016.0
20260501222530 58 329 5.0 9.0 0.00 0.80 0.62 94 1015.9
20260501221532 56 39 5.0 11.0 0.00 0.80 0.62 97 1015.9
20260501220901 55 5 6.0 10.0 0.00 0.79 0.61 97 1016.0
20260501220537 56 6 7.0 11.0 0.00 0.80 0.62 97 1016.1
20260501215518 57 34 6.0 10.0 0.00 0.80 0.62 96 1016.0
20260501214520 57 19 7.0 11.0 0.00 0.80 0.62 96 1016.2
20260501213901 56 11 7.0 10.0 0.00 0.79 0.61 96 1016.1
20260501213516 57 11 8.0 11.0 0.00 0.80 0.62 96 1016.2
20260501212525 57 17 6.0 9.0 0.00 0.80 0.62 97 1016.2
20260501211528 57 16 6.0 10.0 0.00 0.80 0.62 97 1016.2
20260501210901 57 10 7.0 12.0 0.00 0.79 0.61 97 1016.0
20260501210549 57 11 7.0 13.0 0.01 0.80 0.62 97 1016.2
20260501205531 58 30 5.0 11.0 0.01 0.80 0.62 97 1016.0
20260501204535 57 26 6.0 9.0 0.01 0.80 0.62 98 1016.4
20260501203901 57 347 4.0 9.0 0.00 0.79 0.61 99 1016.3
20260501203517 57 347 5.0 9.0 0.01 0.80 0.62 99 1016.5
20260501202540 57 25 4.0 6.0 0.01 0.80 0.62 99 1016.5
20260501201522 58 23 4.0 6.0 0.01 0.80 0.62 98 1016.4
20260501200901 58 340 5.0 7.0 0.00 0.78 0.60 97 1016.0
20260501200524 58 341 5.0 8.0 0.00 0.79 0.61 97 1016.4
20260501195526 59 6 5.0 7.0 0.00 0.79 0.61 96 1016.2
20260501194528 59 7 6.0 14.0 0.00 0.79 0.61 94 1016.0
20260501193901 59 359 4.0 9.0 0.00 0.78 0.60 94 1015.2
20260501193551 59 360 4.0 9.0 0.00 0.79 0.61 94 1015.8
20260501192527 60 4 7.0 13.0 0.00 0.79 0.61 93 1015.6
20260501191517 61 1 6.0 9.0 0.00 0.79 0.61 93 1015.4
20260501190901 61 27 7.0 10.0 0.00 0.78 0.60 92 1014.5
20260501190539 61 27 7.0 11.0 0.00 0.79 0.61 93 1015.2
20260501185516 62 7 5.0 10.0 0.02 0.79 0.61 95 1015.0
20260501184524 61 12 5.0 8.0 0.02 0.79 0.61 97 1014.7
20260501183901 60 42 6.0 9.0 0.02 0.78 0.60 97 1014.2
20260501183527 61 43 7.0 9.0 0.02 0.79 0.61 97 1014.8
20260501182528 61 20 4.0 5.0 0.02 0.79 0.61 98 1014.9
20260501181531 61 32 8.0 12.0 0.02 0.79 0.61 97 1015.0
20260501180901 60 29 4.0 7.0 0.00 0.76 0.58 97 1014.7
20260501180533 61 30 5.0 8.0 0.02 0.79 0.61 97 1015.3
20260501175517 60 17 6.0 9.0 0.01 0.77 0.59 97 1015.1
20260501174659 61 52 6.0 8.0 0.09 0.77 0.59 96 1015.2
20260501173901 61 40 6.0 9.0 0.15 0.76 0.58 95 1014.4
20260501173541 62 40 6.0 10.0 0.15 0.77 0.59 95 1015.0
20260501172523 62 29 7.0 12.0 0.16 0.77 0.59 96 1015.2
20260501171546 62 38 6.0 10.0 0.16 0.77 0.59 97 1015.6
20260501170901 61 34 5.0 9.0 0.15 0.75 0.57 98 1015.9
20260501170528 61 34 5.0 9.0 0.16 0.77 0.59 98 1016.6
20260501165530 60 12 6.0 11.0 0.15 0.76 0.58 99 1017.9
20260501164526 60 281 4.0 6.0 0.07 0.68 0.50 98 1017.3